Regional Weather Roundup
Issued by NWS Charleston, SC

Current Version | Previous Version | Graphics & Text | Print | Product List | Glossary On
Versions: 1 2 3 4 5 6 7 8 9 10 11 12 13 14 15 16 17 18 19 20 21 22 23 24 25 26 27 28 29 30 31 32 33 34 35 36 37 38 39 40 41 42 43 44 45 46 47 48 49 50
000
ASUS42 KCHS 280012
RWRCHS

REGIONAL WEATHER ROUNDUP
NATIONAL WEATHER SERVICE CHARLESTON SC
800 PM EDT SAT MAY 27 2017

NOTE: "FAIR" INDICATES FEW OR NO CLOUDS BELOW 12,000 FEET WITH NO
SIGNIFICANT WEATHER AND/OR OBSTRUCTIONS TO VISIBILITY.

NOT ALL STATIONS ARE QUALITY CONTROLLED. USE DATA WITH CAUTION...
ESPECIALLY DEWPOINT OBSERVATIONS.

SCZ027-030-031-034>040-042>050-280100-
...SOUTHEAST SOUTH CAROLINA...

CITY           SKY/WX    TMP DP  RH WIND       PRES   REMARKS
N CHARLESTON   CLEAR     81  69  67 S9        29.91S
6HR MIN TEMP:  81; 6HR MAX TEMP:  91;

WATERFRONT PRK   N/A     81  71  71 SW8G15    29.90S
JOHNS ISLAND   FAIR      81  70  69 SW9       29.92S
PINOPOLIS        N/A     84  70  61 SW7       29.83S
MONCKS CORNER  FAIR      82  59  44 SW3       29.90S
SUMMERVILLE    FAIR      84  63  48 CALM      29.92R
BEAUFORT MCAS  CLEAR     84  65  52 SW6       29.92F
6HR MIN TEMP:  84; 6HR MAX TEMP:  92;

BEAUFORT ARPT  FAIR      81  70  69 S8        29.92S
HILTON HEAD IS CLEAR     81  72  74 S14       29.94S
WALTERBORO     CLEAR     84  61  45 SW6       29.92S
ALLENDALE      FAIR      86  61  42 CALM      29.92R

...SOUTHERN MIDLANDS AND PEE DEE...

CITY           SKY/WX    TMP DP  RH WIND       PRES   REMARKS
GEORGETOWN     FAIR      79  70  73 SW6       29.92R
KINGSTREE      FAIR      84  61  45 CALM      29.90S
ORANGEBURG     CLEAR     85  58  39 W9        29.92R
6HR MIN TEMP:  85; 6HR MAX TEMP:  91;

BARNWELL       FAIR      86  63  45 CALM      29.93R
AIKEN          FAIR      81  55  41 W7        29.98R
MANNING        FAIR      86  66  51 W9        29.91R
COLUMBIA       PTCLDY    86  63  45 W12       29.91R
6HR MIN TEMP:  86; 6HR MAX TEMP:  92;

SUMTER         CLEAR     85  62  46 W7        29.88S
6HR MIN TEMP:  85; 6HR MAX TEMP:  91;

FLORENCE       CLEAR     85  65  51 W5        29.89S
6HR MIN TEMP:  85; 6HR MAX TEMP:  91;

MYRTLE BEACH   NOT AVBL
N MYRTLE BEACH CLEAR     78  71  79 SW15      29.90S
6HR MIN TEMP:  78; 6HR MAX TEMP:  84;


$$

GAZ063-065-086>088-099>101-113>116-118-119-134>141-150-280100-
...SOUTHEAST GEORGIA...

CITY           SKY/WX    TMP DP  RH WIND       PRES   REMARKS
SAVANNAH ARPT  CLEAR     87  59  38 SW7       29.93F
6HR MIN TEMP:  87; 6HR MAX TEMP:  96;

HUNTER AAF     CLEAR     87  69  54 SW6       29.91S HX  90
6HR MIN TEMP:  87; 6HR MAX TEMP:  93;

FORT STEWART   CLEAR     87  61  42 SW6       29.92S
6HR MIN TEMP:  87; 6HR MAX TEMP:  92;

STATESBORO     CLEAR     86  60  41 SW5       29.93F
SYLVANIA       CLEAR     86  63  45 SW5       29.94S
CLAXTON        FAIR      85  63  47 SW3       29.94F

...CSRA...CENTRAL AND FAR SOUTHEAST GEORGIA...

CITY           SKY/WX    TMP DP  RH WIND       PRES   REMARKS
THOMSON        CLEAR     83  58  43 NW7       30.00S
AUGUSTA-BUSH   CLEAR     87  57  35 W9        29.93R
6HR MIN TEMP:  87; 6HR MAX TEMP:  93;

AUGUSTA-DANIEL CLEAR     86  52  30 W6        29.95R
SWAINSBORO     FAIR      86  59  39 W3        29.96R
VIDALIA        CLEAR     86  61  42 SW6       29.95F
EASTMAN        FAIR      86  45  24 W6        29.98S
HAZLEHURST     FAIR      85  59  40 SW3       29.94F
ALMA           CLEAR     87  59  38 W3        29.96S
6HR MIN TEMP:  87; 6HR MAX TEMP:  92;

WAYCROSS       CLEAR     89  63  41 W5        29.97S HX  90
JESUP          FAIR      88  55  33 CALM      29.95F
BAXLEY         FAIR      88  63  42 SW3       29.96S
BRUNSWICK      CLEAR     82  72  69 SE8       29.96S
SAINT SIMONS   CLEAR     81  70  69 S10       29.96F
6HR MIN TEMP:  81; 6HR MAX TEMP:  88; 6HR PCP: TRACE;


$$

SCZ027-028-034-036>038-045-046-048>050-GAZ119-141-280100-
...LAKE AND SUPPLEMENTAL COASTAL OBSERVATIONS...

STATION/POSITION TIME  TEMP    WIND        PRES    WAVE   SWELL
                       AIR SEA DIR/SP/G            HT/PER HT/PER/DIR
                 (UTC) (F)     (DEG/KT/KT) (MB)    (FT/S) (FT/S/D)
WINYAH BAY       NOT AVBL
LAKE MURRAY      2320   84     260/  6/  9 1012.2R
ACE BASIN NERRS  NOT AVBL
FORT PULASKI     2348   80     220/ 10/ 15 1014.1S
SAPELO ISLAND    2300   84     160/ 10     1015.0

$$

ANZ835-935-AMZ111-154-330-350-352-354-370-450-454-472-280100-
...C-MAN AND BUOY OBSERVATIONS...

STATION/POSITION TIME  TEMP    WIND        PRES    WAVE   SWELL
                       AIR SEA DIR/SP/G            HT/PER HT/PER/DIR
                 (UTC) (F)     (DEG/KT/KT) (MB)    (FT/S) (FT/S/D)
BUOY 41004       2350   77 75  210/ 14/ 17 1013.0F   3/ 4   2/140/ 8
BUOY 41008       2250   79 78  170/ 14/ 17 1014.5    2/ 7   2/ 90/ 7
FOLLY BEACH CMAN 0000   78     220/ 13/ 16 1013.9R
CAPERS NEARSHORE 2308   83 77  220/ 16/ 21 1012.6F
FRIPP NEARSHORE  2308   80 78  210/ 16/ 19 1013.1F


STATION/POSITION TIME  TEMP    WIND        PRES    WAVE   SWELL
                       AIR SEA DIR/SP/G            HT/PER HT/PER/DIR
                 (UTC) (F)     (DEG/KT/KT) (MB)    (FT/S) (FT/S/D)
5E ST. MARYS GA  2330      79                N/A     2/ 7
FRYING PAN BUOY  2350   77 75  220/ 16/ 19 1013.0R   4/ 5
BUOY 41025       2350   78 77  220/ 19/ 21 1011.7F   3/ 8   2/140/ 8
CAPE LOOKOUT NC  0000   76     220/ 10/ 14 1012.1R
BUOY 41002       2250   77 77  230/ 12/ 14 1016.1    3/ 7   2/140/ 7
BUOY 41010       2350   80 80  160/  6/  8 1016.9F   2/ 8   2/ 80/ 8
ST AUGUSTINE FL  0000   76 79  160/ 12/ 13 1016.7F


$$




USA.gov is the U.S. government's official web portal to all federal, state and local government web resources and services.